Location: Dodgeville, WI 53533, USA
(43.0344°N, 90.0900°W)
Time: 02:08:24
(UTC-06:00)

Tiangong - Visible Passes

Search period start: 30 November 2023 00:00
Search period end: 10 December 2023 00:00
Orbit: 374 x 384 km, 41.5° (Epoch: 29 November)

Date Brightness Start Highest point End Pass type
(mag) Time Alt. Az. Time Alt. Az. Time Alt. Az.
30 Nov -0.2 18:18:22 10° W 18:21:01 24° SSW 18:21:52 22° S visible
01 Dec -0.7 17:16:34 10° W 17:19:31 36° SSW 17:22:27 10° SE visible
01 Dec 1.1 18:55:25 10° SW 18:55:39 10° SSW 18:55:46 10° SSW visible
02 Dec 0.6 17:52:03 10° WSW 17:54:11 17° SSW 17:56:18 10° SSE visible
04 Dec 1.2 17:26:01 10° SW 17:26:56 11° SSW 17:27:52 10° SSW visible
